Wind_Speed
18 16 16 16 17 16 14 13 13 13 13 14 14 14 14 14 15 16 17 18 20 21 22 23 24 25 26 27 28 28 29 29 30 30 31 31 32 32 32 32 31 31 31 31 31 31 31 31 31 31 32 32 31 31 31 30 30 29 28 29 29 30 31 32 35 36 32 31 29 27 28 31 32 36 39 41 41 38 37 38 38 39 37 36 36
18 17 17 18 17 16 15 14 13 13 13 14 14 14 14 14 15 16 17 19 20 21 23 24 26 27 28 29 29 30 31 31 32 33 33 33 33 33 33 33 33 32 32 32 32 32 33 33 33 34 34 34 33 33 32 31 30 30 30 29 29 29 30 32 34 35 32 31 31 29 28 30 32 35 38 40 41 40 38 38 40 40 38 37 37
19 19 19 18 18 17 15 14 13 13 14 14 14 13 13 14 15 16 17 19 20 22 24 25 27 28 29 30 31 31 32 32 33 33 34 34 34 35 35 35 35 35 35 35 34 34 34 34 34 35 35 35 34 34 34 33 31 31 31 30 30 30 30 31 33 34 33 32 31 29 30 31 32 36 39 39 40 42 40 38 39 40 39 38 39
20 19 19 18 18 17 15 14 14 14 14 14 13 13 13 14 15 16 17 19 21 23 25 27 28 30 31 31 32 32 32 33 34 34 35 35 35 36 36 37 37 37 37 37 37 36 36 35 35 34 34 34 34 33 33 33 32 32 32 31 31 30 30 31 32 33 33 32 31 29 30 33 33 35 39 39 39 41 42 39 38 40 40 39 39
19 19 18 18 17 16 15 14 14 14 14 14 13 13 13 14 15 17 19 21 23 25 27 29 30 31 32 32 32 33 33 33 34 35 35 36 36 36 36 36 37 37 38 38 38 38 37 37 36 35 34 33 33 32 32 33 33 33 32 31 31 31 30 31 31 32 32 31 31 30 28 31 32 31 36 40 40 40 41 40 39 40 41 41 40
19 17 17 18 17 16 15 15 15 15 14 14 14 14 14 15 17 19 21 23 25 27 29 30 31 31 32 32 32 33 33 33 34 34 35 36 36 36 36 36 36 36 37 37 37 37 37 38 37 36 35 34 33 32 31 32 33 33 33 32 32 32 31 30 30 31 32 30 30 30 28 28 30 30 32 37 42 43 41 40 42 42 41 41 42
18 17 17 18 17 16 16 16 16 15 15 14 15 15 16 17 19 21 23 25 26 28 29 30 30 31 31 31 32 32 32 33 33 33 34 35 35 36 36 36 35 35 35 36 36 36 36 37 37 37 37 35 34 33 32 31 32 32 33 33 32 33 32 30 29 30 31 30 29 29 28 27 30 30 29 32 39 45 43 40 42 43 41 41 41
18 17 18 18 17 17 17 17 16 15 15 15 16 16 18 19 21 22 24 26 27 28 29 29 29 29 30 30 30 31 31 31 31 31 31 32 32 33 33 33 33 33 33 33 34 35 35 35 36 36 37 36 36 35 34 33 32 31 32 33 33 33 33 31 30 30 30 30 29 28 28 28 30 29 27 30 36 44 46 44 42 42 42 41 40
18 18 18 17 17 17 17 16 16 15 15 16 17 18 19 21 22 24 25 26 27 27 28 28 28 28 28 28 28 28 28 29 29 28 28 29 29 30 31 31 32 32 32 32 32 33 33 33 34 34 35 36 36 36 35 34 34 32 31 32 32 33 33 32 31 30 30 30 28 27 28 29 29 29 28 29 33 39 44 45 44 44 43 42 41
17 17 17 17 16 16 16 16 15 15 15 16 18 19 21 22 23 24 25 25 25 26 25 25 24 24 24 24 24 25 25 26 26 27 27 27 27 28 29 30 31 31 32 31 31 31 31 32 32 33 34 34 35 35 35 34 35 34 33 32 32 32 32 33 32 30 30 30 29 27 29 29 28 29 30 28 29 34 41 45 45 45 44 44 42
16 16 15 15 15 15 15 14 14 14 15 17 19 20 21 22 22 23 23 23 22 22 21 21 21 21 21 21 22 22 23 23 24 25 26 27 27 28 29 30 31 32 32 33 33 32 32 32 32 32 33 34 34 34 34 33 34 35 34 33 33 33 32 32 32 31 31 31 30 29 29 29 27 28 28 28 27 29 35 41 44 44 45 47 46
15 14 13 13 13 13 13 13 12 13 15 17 18 19 20 21 21 20 19 19 18 18 18 18 18 18 18 18 19 20 21 22 24 25 26 28 29 30 31 31 32 33 34 35 35 35 34 34 33 33 33 34 34 34 34 33 33 34 35 34 34 34 33 32 33 32 31 31 32 31 30 29 28 28 28 27 27 27 28 35 41 44 46 48 49
12 11 11 11 11 12 12 11 12 13 15 16 17 18 18 18 17 16 16 15 15 15 15 15 15 15 16 17 18 20 21 23 24 26 27 28 29 30 31 32 33 34 35 35 36 36 36 36 36 35 35 34 34 34 33 32 31 31 32 32 33 34 34 33 32 33 32 32 32 32 31 30 29 29 28 27 27 27 26 29 35 42 47 48 47
9 9 9 10 10 10 10 10 11 12 13 14 15 15 15 14 13 13 13 13 12 12 12 13 14 15 16 18 20 21 22 24 25 26 27 28 29 30 31 31 32 33 34 35 36 36 36 36 36 37 37 36 36 35 33 32 31 30 29 29 29 32 34 33 31 31 32 32 31 31 31 31 31 29 28 28 28 27 26 25 28 33 40 44 45
7 7 8 9 9 9 9 9 9 10 11 12 12 11 10 10 10 10 9 9 10 11 12 13 15 16 18 20 21 22 24 25 26 27 28 29 30 30 31 31 32 33 34 35 35 36 35 35 35 35 36 37 37 37 35 33 32 31 30 28 26 27 31 32 30 30 30 31 31 31 31 31 31 29 29 29 28 27 26 25 25 25 29 35 39
6 7 7 8 8 7 7 7 8 8 9 9 8 7 7 7 7 7 7 9 10 12 13 15 17 18 20 21 22 23 25 26 27 28 29 30 31 31 32 32 33 34 35 35 36 36 36 35 34 34 34 35 36 36 36 34 32 31 30 29 27 24 26 30 30 29 29 30 31 32 31 31 31 30 29 29 28 27 26 26 26 26 27 30 33
7 7 6 6 5 5 5 5 5 5 5 5 5 5 5 6 6 7 8 10 11 13 15 16 18 20 21 22 23 25 26 27 28 29 30 31 32 32 33 34 34 35 36 37 38 38 38 37 36 35 34 34 34 34 34 33 31 29 27 26 25 22 22 25 27 27 28 30 31 33 34 33 32 31 29 29 28 27 26 27 27 27 29 31 32
7 6 4 3 3 3 3 3 2 2 3 3 4 5 6 6 7 8 9 11 12 14 16 18 19 21 22 23 25 26 27 28 29 30 31 32 33 33 34 35 35 36 37 38 38 37 36 36 36 36 35 34 34 33 32 31 30 27 25 23 22 20 20 21 23 25 26 28 31 34 35 34 32 30 29 28 28 28 27 27 27 27 29 31 32
5 3 2 1 1 1 0 1 2 3 4 4 5 6 6 7 7 8 10 11 13 15 17 19 20 21 23 24 25 26 27 28 29 30 32 33 34 35 36 36 37 37 38 38 38 36 33 31 32 33 34 33 33 33 30 29 27 26 26 25 23 21 20 18 18 22 24 26 29 30 30 29 28 27 26 26 27 27 27 28 28 29 29 29 30
3 2 2 2 1 2 3 3 4 5 6 6 7 7 6 7 8 9 11 13 14 16 18 19 20 22 23 24 25 26 27 29 30 31 33 34 35 36 37 37 38 39 40 39 38 35 32 30 30 31 32 32 32 32 28 25 24 23 25 26 26 24 20 16 17 21 24 25 26 26 25 25 26 25 24 25 25 26 27 27 28 30 31 30 30
4 4 4 4 5 5 5 6 6 7 7 7 7 7 7 8 9 10 12 14 16 17 18 19 20 21 22 24 25 26 28 29 31 32 33 34 35 36 37 39 40 41 41 41 40 39 37 35 35 35 35 34 33 31 29 26 23 22 22 23 25 25 20 15 16 21 23 22 21 23 23 23 24 25 25 25 25 25 26 27 27 30 31 31 30
6 6 7 7 7 7 7 8 8 8 7 7 7 7 8 9 10 12 13 15 16 17 18 19 20 21 22 23 25 26 28 29 30 31 32 34 35 36 38 39 40 41 42 43 44 44 44 42 41 39 38 36 33 31 30 29 26 22 19 19 22 23 18 11 9 15 21 21 19 21 22 22 22 23 23 23 23 22 23 24 25 27 30 29 27
8 9 10 9 9 9 10 9 9 8 7 7 7 7 8 10 11 12 14 15 16 16 17 18 18 19 21 22 24 25 27 28 29 31 32 33 35 36 37 39 40 42 43 44 45 46 45 44 42 41 39 36 33 29 27 27 26 22 18 17 18 18 14 8 4 5 11 16 19 20 21 21 21 21 20 19 19 19 20 20 19 20 22 23 23
11 12 11 10 11 11 10 9 8 7 7 7 7 8 9 10 11 12 13 14 15 15 15 16 17 18 20 21 23 25 26 27 29 30 31 33 34 35 36 37 39 40 42 43 44 44 43 42 41 39 37 35 32 28 24 22 21 19 16 14 15 14 11 7 5 2 3 9 15 17 18 18 18 17 15 15 16 16 16 16 15 14 15 16 17
13 13 12 12 12 11 10 8 7 7 7 7 7 8 9 10 11 12 13 13 13 13 14 15 16 17 19 20 22 24 25 26 27 29 30 32 33 34 35 36 37 38 40 41 41 40 40 39 38 37 36 34 31 27 23 21 20 18 16 13 11 11 11 10 8 5 3 3 3 9 13 13 13 12 11 11 10 10 10 11 11 12 13 14 15
14 14 14 13 12 10 9 8 7 7 7 7 7 8 9 10 11 11 11 12 12 13 13 14 15 16 18 20 21 23 24 25 26 28 29 31 32 33 34 35 35 36 36 37 37 36 36 36 35 34 34 33 31 28 25 23 21 19 17 16 15 13 12 12 12 8 3 2 1 5 10 10 9 9 8 6 4 3 4 5 6 8 10 10 12
15 15 14 13 11 10 8 8 7 7 7 7 7 8 8 9 10 10 10 11 11 12 13 14 15 16 18 19 21 22 23 24 25 27 29 30 31 32 33 34 34 34 35 35 35 34 34 33 33 32 32 31 30 29 27 25 23 21 20 19 19 18 16 15 14 12 9 6 5 6 9 9 8 7 7 6 5 3 2 1 1 2 4 5 7
16 15 14 12 10 9 8 8 7 7 7 7 8 8 8 9 9 9 10 10 11 12 13 14 16 17 18 20 21 22 23 24 26 27 29 30 31 32 33 33 34 34 34 34 33 32 31 30 30 30 30 31 31 31 30 30 29 26 24 23 22 21 19 16 14 14 14 13 12 11 10 9 7 5 6 6 5 3 3 2 2 2 2 2 3
16 14 13 11 10 9 8 8 7 7 7 7 8 8 8 8 8 9 10 11 11 13 14 15 16 18 19 20 21 22 23 25 27 28 29 30 31 32 33 34 34 34 33 33 31 30 29 29 30 31 32 33 34 35 34 34 34 32 30 29 28 26 23 20 19 18 17 15 14 14 13 12 11 9 8 8 6 5 4 3 3 3 4 4 4
15 13 12 11 10 9 8 8 7 7 8 8 8 7 7 7 8 9 10 11 13 14 15 16 17 18 19 20 21 22 24 25 26 27 28 29 30 31 32 33 33 32 31 30 29 29 29 31 32 33 34 35 36 37 38 38 38 37 35 34 33 31 30 29 27 26 23 19 17 16 15 14 13 11 11 10 9 8 7 6 5 5 5 5 5
15 13 12 11 10 9 8 8 7 8 8 7 7 7 7 7 9 10 11 12 13 15 16 17 18 19 20 21 22 23 23 24 25 25 26 28 28 29 30 31 31 30 29 28 28 29 31 32 33 34 35 36 37 38 39 39 40 40 39 37 35 33 33 32 32 30 28 26 24 22 20 19 18 16 15 14 12 11 10 8 7 7 6 6 6
15 13 12 11 10 9 8 8 8 7 7 7 7 7 7 8 9 11 12 13 14 15 16 16 17 18 20 20 21 22 22 23 24 25 26 26 27 28 29 29 29 29 28 27 28 29 31 32 33 34 35 36 36 37 38 39 39 40 40 39 37 35 33 32 31 31 31 31 30 29 28 27 26 24 23 21 18 15 13 11 9 8 8 8 7
15 13 12 11 10 9 8 8 7 7 6 7 7 7 8 9 10 12 13 14 15 15 15 16 16 17 19 20 20 21 22 22 23 24 25 26 26 27 28 28 28 27 27 27 28 30 31 31 32 33 34 35 35 36 36 37 38 38 38 38 37 36 33 30 28 29 30 31 31 31 31 30 30 29 29 27 25 22 20 17 15 13 11 10 8
15 14 12 11 10 9 8 7 6 6 6 6 7 8 9 10 11 13 14 14 15 15 15 15 16 17 18 19 20 20 21 21 22 23 24 24 25 26 27 27 26 25 26 27 29 30 30 31 31 32 33 33 34 34 35 36 36 36 36 36 36 35 33 31 29 28 29 28 29 29 30 30 30 31 31 30 30 28 26 24 22 19 17 15 13
15 14 12 11 9 8 7 6 5 4 5 5 6 7 9 10 11 12 13 14 15 15 14 15 15 16 17 18 19 19 20 20 21 22 23 23 24 25 25 24 24 25 26 28 29 30 30 30 31 31 31 32 32 32 33 33 34 35 35 35 34 33 32 32 31 30 29 28 28 28 28 28 29 29 30 29 30 30 30 28 25 23 21 20 18
15 13 12 10 9 7 6 4 3 3 4 5 6 7 8 9 11 12 13 14 14 14 14 14 14 15 16 16 17 19 19 20 20 21 21 22 22 23 22 23 24 26 27 27 28 29 29 30 30 30 30 30 31 31 32 32 32 33 33 33 33 33 32 32 32 31 29 29 29 28 27 27 28 28 27 28 28 29 29 28 25 23 22 20 19
15 13 11 9 7 6 4 3 2 2 3 5 6 6 7 8 9 10 12 13 13 14 14 14 14 15 15 16 17 18 19 19 20 21 21 21 21 21 21 23 24 25 26 26 27 28 28 29 29 30 30 30 30 30 30 31 31 31 31 31 31 31 31 31 31 29 29 28 28 28 27 27 27 27 26 26 27 27 27 26 24 23 21 20 18
15 12 10 8 6 5 4 2 2 2 3 4 5 6 6 7 8 9 10 12 13 13 14 14 14 15 15 15 16 17 18 19 19 20 20 20 20 20 21 22 23 24 25 25 26 26 27 27 28 29 29 30 30 30 30 30 30 30 30 30 30 30 30 29 29 29 28 28 28 27 27 26 26 26 26 25 25 25 24 24 22 21 20 19 19
14 11 10 8 7 5 3 2 1 0 2 3 4 5 6 6 7 8 9 11 12 13 13 14 14 14 14 15 15 16 17 17 17 18 18 18 19 20 20 21 22 22 23 24 24 25 25 26 27 27 28 29 29 29 30 30 30 30 30 29 29 29 28 28 28 29 29 28 27 27 26 25 25 25 24 24 24 23 22 21 20 19 19 19 19
12 11 10 8 7 5 4 2 2 1 2 3 4 5 5 6 7 7 9 10 11 12 13 13 13 13 14 14 14 15 15 15 16 16 17 17 18 19 19 20 21 21 22 22 23 23 24 25 25 26 27 27 28 28 29 29 29 29 30 30 29 29 29 29 28 28 28 28 28 27 26 26 25 24 23 22 22 22 21 20 19 19 18 17 17
13 12 10 9 7 6 5 4 3 3 4 4 4 5 5 6 6 7 8 9 10 11 12 12 12 13 13 13 14 14 14 14 14 15 15 16 17 17 18 18 19 19 20 20 21 22 23 23 24 25 26 26 27 27 27 28 28 28 28 29 29 29 29 28 28 27 27 27 27 27 26 26 25 24 23 22 21 20 20 19 18 18 17 16 16
13 11 10 9 8 7 6 5 5 5 5 5 6 6 6 6 6 7 7 8 9 11 11 12 12 12 12 12 13 13 13 13 13 13 14 14 15 15 16 17 17 18 18 19 19 20 21 22 22 23 24 25 25 26 26 26 27 27 27 28 28 28 28 27 27 27 26 25 25 25 25 25 25 24 23 23 21 20 19 19 18 17 17 16 15
13 11 10 9 8 8 7 7 7 7 7 7 7 7 7 7 7 7 7 8 9 10 11 11 12 12 12 11 12 12 13 12 12 12 12 13 13 14 14 15 16 16 17 17 17 18 19 20 20 21 22 22 23 24 24 25 26 26 26 27 27 27 26 26 25 25 24 24 24 24 23 23 23 23 23 22 21 20 19 19 18 17 16 16 15
13 12 11 10 10 9 9 9 8 8 8 8 8 8 8 8 8 8 8 9 9 10 11 11 11 12 12 12 11 12 12 12 12 11 11 12 12 13 13 14 14 15 15 16 16 17 17 18 19 20 20 21 21 21 22 22 23 24 24 25 25 25 25 25 24 24 23 23 22 22 21 21 21 21 21 21 20 20 19 18 17 17 16 15 15
13 12 12 11 11 11 11 10 10 10 9 9 9 9 9 10 10 10 10 10 10 10 11 12 12 12 12 12 12 11 11 12 12 12 11 11 12 13 13 13 14 14 14 15 15 16 16 17 18 19 19 20 20 20 20 21 21 21 22 22 23 23 24 24 24 24 23 23 22 21 20 19 19 19 19 19 18 18 18 17 17 16 15 15 14
13 13 13 12 12 12 12 12 11 11 11 11 11 11 11 11 12 12 12 12 12 12 12 13 13 13 13 13 13 13 12 12 12 12 12 12 12 13 13 13 13 13 14 14 15 15 16 16 17 17 18 19 19 20 20 20 20 21 21 21 21 22 22 22 22 23 23 23 22 21 20 19 18 17 16 16 16 16 16 15 15 15 14 14 13
14 14 14 14 14 14 13 13 13 12 12 12 12 12 12 13 13 13 14 14 14 14 14 14 14 14 14 14 14 14 14 13 13 13 13 13 13 13 14 14 14 14 14 14 14 15 15 15 15 16 17 18 18 19 19 20 20 21 21 21 22 22 21 21 21 21 21 21 21 21 20 19 18 17 16 15 14 14 14 13 13 13 12 12 12
15 15 15 15 15 15 15 14 14 13 13 13 14 14 14 15 15 15 16 16 16 17 17 17 16 16 15 15 16 16 16 16 15 15 15 15 14 14 15 15 15 15 15 15 14 14 15 15 15 15 15 16 17 17 18 19 20 21 21 22 22 22 22 22 21 21 20 19 19 19 19 19 18 18 17 16 15 14 13 12 12 11 11 10 10
17 17 17 17 17 17 16 16 15 15 14 14 15 15 16 16 17 17 18 18 18 19 19 19 19 19 18 18 18 17 17 17 17 17 17 17 17 17 17 16 17 17 17 16 16 16 16 15 15 15 15 15 16 16 17 18 19 20 21 21 22 22 22 22 22 22 21 20 19 18 18 17 17 17 17 16 16 15 14 13 12 11 10 10 9
18 18 18 18 18 18 18 17 17 16 16 16 16 17 17 18 18 19 19 20 20 20 21 21 21 22 22 21 21 20 20 19 19 19 19 19 19 19 19 19 19 18 18 18 18 18 18 17 17 16 16 16 16 16 17 17 18 19 20 21 22 22 22 22 22 22 21 21 20 20 19 18 17 16 16 16 16 15 15 14 13 12 11 11 10
19 19 19 19 19 19 19 19 18 18 18 18 18 19 19 19 19 20 20 20 21 21 22 23 23 23 24 24 24 23 23 22 22 21 21 21 21 21 21 21 21 20 20 20 20 20 19 19 19 18 17 17 17 17 18 18 19 20 21 22 23 23 23 23 22 22 21 21 21 20 20 19 18 17 17 16 16 15 15 15 14 13 13 12 12
Wind_Direction
233 234 232 236 245 250 253 258 265 273 279 285 289 293 296 298 301 305 307 310 312 313 313 313 312 311 310 309 309 308 308 308 307 307 306 306 306 306 305 304 303 302 301 300 300 299 299 299 299 299 299 300 300 300 299 298 298 297 294 290 288 287 287 284 283 285 288 286 280 268 262 260 252 247 239 227 224 228 229 230 230 228 226 225 227
231 231 231 236 244 248 252 258 266 274 279 284 288 292 296 300 305 308 311 313 314 314 314 314 313 312 311 310 310 309 309 308 308 308 307 307 307 307 307 306 305 304 302 301 300 299 299 298 298 297 298 298 298 297 296 294 292 293 292 290 287 285 285 284 283 285 285 284 282 275 267 261 252 246 241 230 225 228 230 230 231 229 226 225 227
227 227 229 236 243 247 252 260 268 274 278 282 287 292 299 305 308 311 313 314 314 314 313 313 312 311 311 311 310 310 310 309 309 308 308 308 308 308 307 307 306 305 303 302 301 299 298 297 297 296 296 296 295 295 293 292 289 289 290 289 287 284 282 282 283 284 283 280 279 277 274 270 259 247 243 234 226 228 231 230 230 231 228 226 227
222 223 229 237 243 247 254 262 267 271 275 280 286 293 299 302 305 308 310 311 311 312 312 312 312 311 311 311 311 310 310 310 309 309 308 307 307 306 306 305 304 304 303 302 302 301 300 298 297 296 296 295 294 293 292 291 288 286 286 286 286 285 282 281 281 282 282 280 279 278 274 274 269 253 242 234 224 225 230 230 229 230 230 229 228
220 223 231 239 243 249 256 261 264 268 273 279 283 289 293 297 302 306 307 309 310 310 311 311 311 311 311 311 311 311 311 310 309 308 308 307 306 305 304 304 303 303 302 302 302 301 301 300 299 297 296 295 294 293 291 290 288 285 284 283 283 282 280 280 280 281 282 279 279 280 275 272 272 260 243 233 223 223 229 229 228 230 230 229 229
221 226 234 241 246 252 257 259 262 267 271 276 280 285 292 297 302 306 307 309 310 310 311 311 311 312 312 311 311 311 310 309 309 307 307 306 306 305 304 304 303 302 301 300 299 299 298 298 298 297 296 295 293 292 290 288 287 285 283 281 280 280 278 277 278 279 280 279 277 278 277 274 274 268 254 240 226 222 227 229 228 230 230 230 230
224 230 237 243 248 253 255 257 261 267 271 277 283 288 295 300 303 306 307 309 310 311 312 312 312 312 312 311 311 310 310 310 310 309 308 308 307 306 305 305 304 303 302 301 299 298 297 296 295 295 294 294 292 291 289 287 286 285 284 281 278 278 276 275 274 275 277 278 274 274 276 274 272 270 261 248 234 226 226 228 228 229 231 231 231
225 231 238 243 249 252 254 258 263 269 275 281 288 293 298 302 304 306 309 311 313 314 314 314 314 314 314 315 314 314 314 314 315 315 314 313 312 312 311 310 310 309 308 306 304 302 300 297 295 293 292 292 291 290 288 286 284 283 282 281 278 277 275 273 271 272 274 275 273 273 275 273 274 274 264 249 239 231 227 226 228 231 233 233 233
225 232 238 244 249 251 255 261 267 273 280 287 293 298 301 304 306 309 312 314 316 316 317 318 319 320 321 322 322 322 322 322 322 322 322 321 321 320 320 319 318 317 316 315 312 309 306 302 299 295 292 290 289 288 287 286 284 282 280 279 277 275 275 273 270 268 270 272 271 271 273 273 274 278 273 257 244 236 231 228 229 231 232 233 235
227 233 240 245 250 255 260 266 272 278 287 294 299 302 304 306 310 313 316 318 319 321 323 324 326 328 329 330 330 330 330 330 330 331 331 331 330 329 328 327 326 324 323 321 319 317 313 309 305 300 295 291 287 285 284 283 283 282 279 277 277 275 273 273 270 267 266 268 269 268 270 273 272 274 277 272 256 241 234 232 233 235 235 234 234
230 236 243 249 254 261 266 271 278 286 294 300 302 304 306 310 314 317 320 323 326 329 331 333 334 335 336 337 338 338 339 339 340 340 340 340 339 338 336 335 333 331 330 328 326 324 322 318 313 308 302 295 289 284 282 280 279 279 277 276 276 276 274 272 270 267 264 265 267 267 267 271 274 273 275 276 270 256 242 235 235 237 238 236 233
233 241 248 256 262 267 271 277 286 295 300 303 304 306 310 314 318 323 328 333 336 338 339 341 343 345 347 349 349 350 351 350 350 349 348 347 345 343 342 340 338 337 335 333 331 329 327 325 321 317 311 305 298 291 285 280 276 276 276 274 273 274 273 272 270 266 263 262 264 266 266 269 272 274 275 275 276 272 259 246 239 236 237 236 234
239 248 256 264 269 272 278 286 296 303 304 305 307 311 315 320 327 334 340 343 344 346 349 353 357 360 1 2 2 1 0 359 357 355 353 351 349 347 345 343 341 340 338 336 334 332 330 329 327 324 321 315 309 301 294 287 280 275 274 273 271 270 269 269 268 267 263 261 262 264 267 267 267 269 273 274 274 272 267 259 248 239 236 234 234
247 257 265 270 274 278 287 297 304 307 307 309 313 317 324 332 341 347 350 352 356 1 6 11 12 13 12 11 10 8 6 4 2 360 358 356 354 352 350 347 345 342 340 338 336 334 332 331 330 328 327 323 319 312 304 296 287 277 272 271 270 268 267 265 265 264 261 258 260 264 264 264 265 266 268 269 270 270 269 267 262 252 242 237 235
259 266 271 274 277 284 294 304 309 311 313 316 320 328 339 350 356 0 3 9 15 19 21 21 19 17 15 13 12 9 7 7 5 3 2 360 358 357 354 352 349 346 344 341 339 336 334 332 331 331 330 329 326 322 315 307 297 287 278 273 271 268 267 265 262 261 258 255 256 260 261 261 264 266 267 268 268 267 265 264 263 261 254 246 241
272 273 272 275 281 290 304 313 316 318 319 325 335 349 2 11 18 24 29 30 30 27 25 22 19 17 15 12 11 9 8 7 5 4 3 2 0 359 358 356 354 351 348 346 343 341 338 336 335 334 333 331 328 325 321 314 307 299 289 281 278 273 268 264 261 257 254 251 251 255 258 259 262 265 266 267 267 266 265 262 258 254 252 251 249
274 271 270 276 288 305 318 323 322 324 332 348 7 22 35 45 49 48 42 35 30 26 22 20 18 16 14 12 10 9 8 7 5 5 4 3 2 1 -0 359 358 355 353 350 348 346 344 341 338 337 335 332 329 326 322 316 310 307 302 292 282 275 270 266 262 257 252 248 249 252 255 257 260 263 263 263 264 265 265 265 262 258 253 250 250
265 263 268 282 307 325 328 330 335 354 22 41 57 69 73 69 60 49 39 31 26 23 22 20 18 16 14 12 11 10 9 7 6 5 5 4 3 3 2 1 -0 358 357 355 353 350 347 343 340 338 336 334 331 328 323 317 310 305 305 301 286 277 275 268 260 256 252 248 247 251 255 257 258 260 262 261 262 263 263 262 262 261 260 256 252
250 246 250 274 332 330 337 80 80 78 83 94 99 93 82 69 54 41 34 28 25 24 23 21 18 16 14 13 12 10 9 8 7 6 6 5 5 4 4 3 2 1 0 359 357 353 348 344 342 341 339 337 334 331 326 321 313 303 299 300 295 289 285 274 260 254 250 249 251 251 252 254 256 260 263 262 260 261 262 263 262 261 261 262 261
213 181 160 148 147 152 141 123 113 112 115 116 107 93 77 60 47 38 33 29 28 26 23 20 18 16 15 13 11 10 10 9 9 8 7 6 6 5 5 4 3 3 3 2 1 359 355 352 350 349 347 344 340 337 334 331 327 316 303 297 297 296 286 270 263 261 252 247 252 254 250 250 253 256 258 257 257 258 260 262 263 261 259 259 260
165 152 148 151 152 151 141 131 127 126 125 117 101 82 65 53 44 38 34 31 29 26 22 19 17 15 14 12 12 12 12 11 10 9 8 8 7 6 6 5 5 5 5 5 5 5 5 3 -0 358 355 353 349 345 343 343 341 333 317 305 306 304 288 259 254 262 257 249 249 251 250 248 248 250 252 254 256 258 260 261 260 261 261 260 260
152 149 151 153 153 148 139 133 130 126 119 103 84 68 56 48 42 38 35 31 29 25 21 18 16 14 13 13 13 14 14 13 12 11 10 10 9 8 8 7 7 7 7 7 8 8 8 6 4 1 358 356 354 351 349 348 348 345 335 321 314 308 295 268 246 249 248 243 241 244 244 239 238 241 244 248 253 256 258 260 258 258 259 260 260
149 151 152 152 149 143 136 131 126 118 103 87 73 62 53 47 42 38 34 30 27 22 18 16 14 13 14 14 14 15 15 14 14 13 13 12 12 11 11 10 10 9 9 10 10 9 8 6 4 1 358 356 356 354 351 350 352 354 349 335 325 317 306 295 284 234 217 210 211 223 231 229 229 234 237 240 248 252 254 256 257 256 255 257 260
151 151 150 148 143 137 131 125 117 104 89 78 68 58 51 46 41 36 32 28 24 19 16 15 13 13 14 15 16 16 16 17 16 16 15 15 14 14 14 13 13 12 12 13 12 10 8 6 4 1 359 358 359 356 351 351 357 1 357 348 341 337 328 312 311 316 184 182 186 197 213 223 229 233 235 236 241 244 246 248 249 251 254 256 260
150 146 145 143 138 132 126 118 106 94 83 73 63 55 48 43 38 34 29 24 19 16 15 14 13 13 14 16 18 18 18 18 19 19 19 18 17 17 17 17 16 16 16 16 15 12 10 8 6 3 1 2 2 1 358 359 3 4 5 8 6 358 351 349 348 340 304 278 198 170 179 198 215 222 224 225 230 235 239 242 244 249 255 258 261
146 143 142 139 134 129 122 111 100 90 79 68 58 51 44 39 35 30 26 21 16 14 13 13 13 14 16 18 19 19 18 19 20 22 22 21 21 21 20 20 20 20 20 19 17 15 14 13 10 8 8 8 9 9 9 10 9 7 9 16 23 22 16 11 9 12 2 309 296 123 127 143 170 189 195 193 189 198 224 240 251 257 260 263 266
142 140 139 136 132 127 118 109 100 88 76 67 57 48 41 37 32 27 22 18 15 13 14 14 14 15 17 19 19 18 18 18 21 23 23 23 22 22 22 22 22 21 22 22 20 18 18 18 17 17 17 18 19 20 20 21 20 18 16 18 23 26 27 24 20 22 34 45 47 54 68 86 117 146 150 143 134 127 131 146 243 272 274 278 279
141 139 137 135 131 125 115 106 97 85 75 65 53 43 37 33 29 23 18 15 14 14 15 16 15 15 17 17 18 17 17 17 19 22 24 23 22 23 23 24 23 22 23 23 22 20 20 21 22 23 24 25 26 28 30 31 32 31 30 29 29 30 31 32 32 31 30 29 25 22 27 36 47 76 105 113 116 115 106 93 75 51 29 9 339
140 137 136 133 127 122 114 105 94 83 71 59 48 41 34 29 25 21 16 13 13 14 15 16 16 16 16 16 16 16 17 17 19 21 22 22 22 22 23 24 23 23 23 22 21 20 22 23 25 27 29 30 30 32 34 36 38 40 40 40 40 39 38 38 40 40 38 31 25 22 24 24 23 31 50 64 69 71 73 66 50 38 33 26 16
139 137 135 131 125 120 112 102 91 77 65 56 49 41 33 29 27 23 20 17 16 15 15 15 15 15 15 15 15 16 17 17 19 21 21 21 22 22 24 24 23 23 23 22 19 20 24 27 28 30 32 33 34 35 35 37 39 41 43 44 45 44 43 43 42 42 41 39 36 33 32 31 30 30 34 40 44 46 48 47 41 34 29 21 12
140 137 134 129 124 118 109 98 87 76 67 62 55 45 38 34 31 27 24 21 19 17 16 15 15 14 14 14 15 15 16 16 17 19 21 22 22 22 24 24 23 23 24 23 21 22 26 29 30 32 33 34 36 36 37 37 39 40 41 43 45 45 45 44 42 41 40 41 41 40 40 39 37 35 34 33 34 34 35 37 37 34 32 29 25
139 136 132 127 121 113 105 96 87 79 71 63 55 47 41 36 32 29 26 22 20 18 16 15 15 14 14 14 15 14 14 15 16 18 20 21 21 22 24 24 22 22 23 24 24 26 28 29 31 33 34 35 36 36 37 38 38 39 40 41 42 42 42 41 39 37 38 39 39 39 41 40 40 40 38 36 34 34 33 32 31 32 34 35 34
138 134 130 126 120 113 107 99 90 81 72 61 51 43 38 34 31 28 24 22 20 18 15 14 14 13 13 14 14 13 14 14 15 16 18 19 19 21 24 24 22 21 23 24 26 29 30 31 32 33 34 35 36 36 36 38 39 39 40 41 41 41 41 39 36 34 34 35 35 36 38 38 38 39 39 37 36 36 36 35 33 33 36 39 42
138 135 132 128 123 117 110 102 92 80 68 56 44 36 32 30 28 25 22 20 18 16 14 13 13 13 13 12 12 13 14 14 14 16 18 18 18 20 22 22 21 21 23 25 28 31 32 32 33 34 35 36 36 36 37 37 38 39 40 41 41 42 41 41 39 37 35 34 34 35 37 37 38 39 39 39 39 39 39 39 38 38 40 42 43
141 139 136 133 129 123 116 107 93 76 61 47 37 30 26 25 23 20 18 16 14 13 11 11 12 12 12 11 11 11 13 13 14 16 18 17 18 19 20 19 19 21 23 26 28 31 32 33 34 34 35 35 36 37 38 37 37 38 39 40 41 41 41 41 40 39 39 38 37 37 37 37 38 39 39 39 41 41 41 40 39 41 46 49 51
146 144 142 139 136 133 126 114 93 67 46 36 30 25 21 21 19 16 14 12 11 10 10 10 10 11 11 11 11 10 11 13 14 17 19 19 18 18 17 17 19 22 23 26 28 29 31 33 34 35 35 35 36 36 37 37 38 38 38 38 38 39 40 40 40 38 38 39 40 40 39 39 39 38 37 38 39 41 41 42 41 43 47 52 58
152 151 148 146 146 147 143 129 102 59 31 23 21 17 16 18 17 13 11 9 7 7 7 7 8 9 9 10 10 9 10 12 14 16 18 18 18 17 16 17 20 22 23 25 27 28 30 31 33 34 35 36 36 36 36 37 38 38 38 38 38 38 38 39 40 39 38 38 39 39 40 40 40 39 38 38 38 39 41 43 45 45 46 47 52
158 157 157 157 162 167 165 149 113 53 14 4 5 4 6 10 13 10 7 5 5 4 5 5 6 7 8 8 9 8 9 11 13 15 16 17 17 16 16 18 21 23 24 25 27 27 29 30 31 32 34 36 36 37 37 38 38 38 38 38 38 38 38 39 40 40 40 40 40 40 39 39 39 38 38 38 39 40 41 43 45 46 45 44 46
165 166 169 173 179 185 189 188 159 28 340 337 344 348 351 359 6 6 3 1 1 1 2 2 3 4 5 7 8 8 8 10 12 13 14 16 17 17 17 19 21 23 25 26 27 27 29 29 30 31 32 33 35 35 36 37 38 38 38 38 38 39 39 39 39 40 40 40 41 42 42 41 41 40 38 38 39 41 41 42 43 43 43 44 46
174 179 184 188 191 198 210 227 243 271 293 305 318 327 335 345 354 358 358 356 356 357 358 359 0 2 3 4 5 6 7 8 9 11 13 15 17 17 17 19 21 23 25 27 28 28 29 29 30 31 31 32 32 32 33 34 35 36 37 37 37 38 38 38 39 39 39 39 40 41 42 43 44 44 42 41 41 40 39 40 41 41 41 42 44
186 190 194 198 202 212 224 238 251 264 274 284 295 307 319 330 339 346 349 350 350 351 352 353 355 357 359 359 1 3 6 7 7 8 10 13 15 16 17 18 20 22 24 26 28 29 30 30 30 31 31 31 30 30 30 30 30 31 32 34 35 35 36 37 37 38 38 39 39 39 40 41 41 43 44 44 44 43 41 39 39 39 40 41 42
195 199 202 207 214 223 232 242 254 262 269 277 286 293 303 314 322 329 336 339 341 342 344 345 347 350 352 354 355 357 360 2 3 3 5 8 10 13 14 16 17 19 21 24 25 27 28 29 30 30 31 31 31 30 29 29 29 30 30 30 31 31 32 33 34 35 36 37 38 38 38 38 39 39 40 41 43 45 45 43 40 39 38 39 40
203 207 211 218 225 232 238 246 253 260 265 272 279 285 292 301 307 312 319 325 329 331 332 334 337 339 342 345 348 349 351 354 355 356 358 0 2 5 8 10 12 14 16 18 20 22 23 25 26 27 28 29 29 29 29 28 28 29 30 30 30 30 29 29 29 30 31 33 35 35 36 36 36 37 37 37 38 39 42 43 43 42 41 39 39
210 214 219 226 232 239 244 248 253 259 264 269 275 280 286 292 296 300 306 311 315 318 320 323 326 328 330 333 336 339 341 343 344 346 346 348 351 354 358 1 4 6 7 10 12 15 17 19 20 21 22 23 24 25 25 25 26 27 27 28 29 29 29 29 28 27 27 28 29 30 31 32 33 33 34 34 35 35 36 37 39 41 42 42 41
215 220 226 230 235 241 246 249 252 256 261 266 270 275 279 285 289 294 297 301 304 307 308 311 314 317 318 319 321 324 328 330 332 333 333 334 337 341 345 349 353 356 358 1 3 5 9 11 13 15 16 16 17 18 18 19 21 22 22 23 24 25 26 27 26 26 26 25 25 25 25 26 27 28 29 30 31 32 32 32 32 33 35 37 39
221 227 232 235 238 242 246 249 253 256 260 265 268 271 274 279 284 289 292 295 297 298 299 301 304 306 307 308 308 309 312 315 317 320 321 322 323 327 331 336 340 344 347 351 353 355 359 2 5 9 11 12 12 13 13 13 14 15 16 16 17 18 20 21 21 22 23 23 22 22 21 20 20 20 21 22 24 25 27 27 28 28 28 28 30
227 232 235 238 241 242 244 248 253 256 260 264 267 269 273 276 279 284 288 290 292 292 293 293 295 296 298 299 299 299 300 302 303 305 307 309 310 313 318 322 326 330 334 338 342 345 348 351 354 358 3 6 9 10 11 11 11 11 11 11 11 11 11 12 13 14 15 16 17 18 18 17 16 15 14 14 14 15 16 18 20 22 22 22 22
230 234 238 240 242 243 244 247 251 256 260 264 267 270 273 276 278 281 283 285 287 289 289 289 289 290 290 291 292 293 293 293 294 295 297 298 299 301 305 309 313 317 321 325 329 333 336 339 342 345 349 354 359 3 6 8 9 9 9 9 8 7 6 4 4 4 5 6 8 9 10 11 12 11 10 9 7 6 6 5 6 8 10 11 12
233 236 239 242 244 245 246 247 250 254 259 263 267 270 272 275 278 280 282 283 284 285 286 286 286 287 287 287 287 288 288 288 288 289 290 291 292 293 295 298 301 305 309 313 316 320 324 327 331 333 335 338 342 348 354 358 1 2 3 4 3 3 2 0 359 358 356 356 357 358 359 0 1 3 4 4 3 1 359 357 355 354 353 354 355
238 240 243 245 247 249 250 250 252 255 259 263 266 269 271 274 277 279 280 281 282 282 283 283 284 286 287 288 288 288 288 287 286 285 284 285 286 287 289 290 292 295 298 302 305 309 312 315 319 324 326 326 327 330 335 340 345 348 351 352 353 354 354 354 354 353 352 350 349 348 347 348 348 350 351 353 354 355 355 353 351 347 344 341 339
241 244 246 247 249 251 252 253 255 257 260 263 267 269 271 273 274 276 277 279 280 280 281 282 283 285 286 288 289 289 289 289 288 287 286 284 283 283 284 285 286 288 290 293 296 299 302 305 309 313 317 318 318 319 320 323 328 332 336 339 342 343 344 345 345 346 346 345 344 341 340 338 338 338 338 339 340 342 343 344 344 343 341 338 333
Height
3146 3147 3148 3149 3149 3149 3149 3149 3149 3148 3147 3147 3146 3145 3145 3144 3143 3142 3141 3140 3139 3138 3136 3135 3134 3133 3131 3130 3129 3127 3126 3124 3123 3121 3120 3118 3116 3114 3113 3112 3110 3109 3107 3106 3104 3103 3101 3100 3099 3097 3096 3094 3094 3092 3091 3089 3087 3085 3084 3082 3081 3080 3078 3076 3073 3072 3073 3072 3071 3073 3074 3074 3074 3075 3076 3078 3080 3083 3086 3088 3090 3091 3093 3095 3096
3144 3145 3146 3147 3147 3148 3147 3147 3147 3146 3145 3145 3144 3144 3143 3142 3141 3140 3139 3138 3137 3135 3134 3133 3131 3130 3129 3127 3126 3124 3122 3121 3119 3117 3116 3114 3112 3110 3109 3107 3106 3104 3103 3102 3100 3099 3097 3096 3094 3093 3091 3090 3089 3087 3086 3085 3083 3082 3080 3078 3077 3076 3075 3073 3070 3068 3068 3069 3068 3068 3069 3069 3069 3070 3072 3074 3076 3079 3081 3084 3085 3086 3089 3090 3091
3142 3143 3144 3145 3145 3146 3145 3145 3145 3144 3144 3143 3142 3142 3141 3140 3139 3138 3137 3136 3135 3133 3132 3131 3129 3127 3126 3124 3122 3121 3119 3117 3115 3113 3112 3110 3108 3106 3104 3103 3101 3100 3098 3097 3096 3094 3093 3092 3090 3088 3087 3085 3084 3082 3081 3080 3079 3077 3076 3075 3073 3072 3071 3069 3067 3065 3064 3065 3065 3064 3064 3064 3064 3066 3067 3069 3072 3074 3076 3078 3080 3082 3084 3086 3087
3140 3141 3142 3143 3143 3144 3143 3143 3143 3142 3142 3141 3140 3140 3139 3138 3137 3136 3135 3134 3133 3131 3130 3128 3126 3124 3123 3121 3119 3117 3115 3114 3112 3110 3108 3106 3104 3103 3101 3099 3097 3095 3094 3092 3090 3089 3088 3087 3085 3084 3082 3081 3079 3078 3076 3075 3074 3072 3071 3071 3069 3068 3067 3066 3064 3062 3061 3061 3061 3061 3060 3060 3059 3060 3062 3064 3066 3068 3070 3073 3075 3077 3079 3082 3083
3138 3139 3140 3141 3142 3142 3141 3141 3141 3140 3140 3139 3139 3138 3137 3137 3136 3135 3133 3132 3130 3129 3127 3125 3123 3121 3119 3117 3116 3114 3112 3110 3108 3106 3104 3102 3100 3098 3097 3095 3093 3090 3089 3087 3085 3083 3082 3080 3079 3078 3077 3075 3074 3073 3071 3070 3069 3067 3066 3066 3065 3064 3063 3061 3060 3059 3057 3057 3057 3057 3056 3056 3054 3055 3056 3058 3060 3062 3065 3068 3070 3072 3074 3077 3078
3136 3137 3139 3139 3140 3140 3139 3139 3139 3138 3138 3138 3137 3136 3135 3135 3133 3132 3131 3129 3128 3126 3124 3122 3120 3118 3116 3114 3112 3110 3108 3106 3104 3102 3100 3098 3096 3094 3092 3090 3088 3086 3084 3082 3080 3078 3077 3075 3073 3072 3071 3070 3069 3068 3066 3065 3063 3062 3061 3061 3060 3059 3058 3057 3056 3055 3054 3053 3053 3053 3052 3052 3051 3051 3052 3053 3055 3057 3059 3062 3065 3067 3069 3071 3074
3135 3136 3137 3137 3138 3138 3137 3137 3137 3137 3136 3136 3135 3134 3133 3132 3131 3130 3128 3127 3125 3123 3122 3120 3117 3115 3113 3111 3109 3106 3105 3103 3101 3099 3096 3094 3092 3090 3088 3086 3084 3082 3080 3078 3076 3074 3072 3070 3068 3066 3065 3063 3062 3061 3061 3060 3058 3058 3056 3055 3055 3054 3053 3053 3052 3051 3050 3049 3049 3049 3049 3049 3048 3048 3048 3049 3050 3052 3054 3056 3059 3061 3063 3066 3068
3133 3134 3134 3135 3135 3135 3135 3135 3135 3135 3134 3133 3133 3132 3131 3130 3128 3127 3126 3124 3122 3121 3119 3116 3114 3112 3110 3107 3105 3103 3101 3099 3097 3095 3093 3091 3088 3086 3084 3082 3080 3078 3076 3074 3071 3069 3067 3065 3063 3061 3060 3058 3056 3055 3054 3053 3053 3052 3052 3050 3049 3048 3048 3048 3047 3047 3046 3045 3044 3044 3045 3045 3044 3044 3044 3044 3045 3046 3048 3051 3053 3056 3059 3060 3063
3131 3132 3132 3133 3133 3133 3133 3133 3133 3132 3132 3131 3130 3129 3128 3127 3126 3125 3123 3121 3119 3118 3115 3113 3111 3109 3106 3104 3102 3100 3098 3096 3094 3092 3090 3088 3085 3083 3080 3078 3076 3074 3072 3070 3067 3065 3063 3061 3059 3057 3055 3053 3052 3050 3048 3047 3046 3046 3046 3045 3044 3043 3043 3043 3043 3042 3041 3040 3040 3040 3040 3041 3041 3040 3040 3040 3040 3042 3044 3047 3048 3051 3054 3056 3058
3129 3129 3130 3130 3131 3131 3131 3131 3130 3130 3129 3129 3128 3127 3126 3125 3124 3122 3120 3119 3117 3115 3113 3111 3109 3107 3105 3103 3101 3098 3096 3094 3092 3089 3087 3085 3083 3080 3078 3075 3072 3070 3068 3066 3064 3062 3059 3056 3054 3052 3050 3049 3047 3045 3044 3042 3040 3039 3039 3039 3038 3038 3038 3037 3037 3038 3037 3036 3036 3036 3036 3036 3037 3037 3036 3037 3037 3038 3040 3042 3044 3046 3048 3050 3052
3126 3127 3128 3128 3128 3128 3128 3128 3128 3127 3127 3126 3126 3125 3124 3123 3121 3120 3118 3116 3114 3112 3111 3109 3107 3106 3104 3102 3100 3097 3095 3093 3090 3088 3086 3083 3081 3078 3075 3073 3070 3067 3064 3062 3060 3058 3055 3053 3050 3048 3045 3043 3042 3041 3040 3038 3036 3034 3033 3033 3032 3032 3032 3032 3032 3033 3032 3032 3032 3032 3032 3032 3033 3034 3033 3033 3033 3034 3035 3036 3039 3041 3043 3044 3046
3124 3125 3125 3126 3126 3126 3126 3126 3125 3125 3124 3124 3124 3123 3122 3121 3119 3117 3116 3114 3113 3111 3110 3108 3107 3105 3103 3101 3099 3097 3094 3092 3089 3087 3084 3082 3079 3076 3073 3070 3067 3064 3062 3059 3056 3053 3051 3048 3046 3043 3040 3038 3036 3035 3034 3033 3032 3030 3029 3028 3028 3027 3026 3026 3026 3027 3028 3028 3028 3028 3028 3029 3030 3030 3030 3030 3030 3030 3030 3031 3032 3035 3036 3038 3040
3122 3123 3123 3124 3124 3124 3124 3123 3123 3122 3122 3122 3122 3121 3120 3119 3117 3116 3115 3113 3112 3111 3110 3108 3107 3105 3103 3101 3099 3096 3094 3091 3089 3086 3083 3081 3078 3075 3072 3068 3065 3062 3059 3056 3053 3050 3047 3044 3042 3039 3036 3033 3031 3029 3027 3027 3026 3025 3024 3023 3022 3022 3021 3020 3021 3021 3022 3023 3023 3024 3025 3025 3025 3025 3026 3027 3027 3026 3026 3026 3027 3028 3029 3031 3034
3120 3121 3121 3122 3122 3122 3122 3121 3121 3121 3121 3121 3120 3119 3118 3117 3116 3115 3114 3113 3112 3111 3110 3108 3107 3105 3103 3101 3098 3096 3093 3091 3089 3086 3083 3080 3077 3074 3070 3067 3064 3061 3057 3054 3050 3047 3044 3041 3038 3035 3032 3029 3026 3023 3022 3021 3020 3019 3019 3018 3017 3016 3016 3016 3016 3016 3017 3018 3018 3019 3021 3020 3020 3021 3022 3022 3022 3022 3022 3022 3023 3023 3024 3026 3029
3119 3119 3119 3120 3120 3120 3119 3119 3119 3119 3119 3119 3119 3118 3117 3116 3115 3115 3114 3113 3112 3111 3110 3108 3106 3104 3102 3100 3098 3095 3093 3091 3088 3086 3083 3080 3076 3073 3070 3067 3063 3060 3056 3052 3048 3045 3041 3038 3035 3031 3028 3025 3022 3019 3017 3015 3014 3013 3013 3012 3012 3011 3010 3010 3011 3011 3012 3013 3014 3015 3016 3016 3016 3017 3018 3018 3018 3019 3019 3019 3020 3020 3021 3022 3024
3118 3118 3118 3118 3118 3118 3118 3118 3118 3118 3118 3118 3117 3117 3116 3116 3115 3115 3114 3113 3112 3111 3109 3107 3106 3103 3101 3099 3097 3095 3093 3090 3088 3085 3082 3079 3076 3073 3070 3066 3062 3058 3054 3050 3046 3042 3038 3035 3032 3029 3025 3022 3020 3017 3013 3011 3009 3008 3007 3007 3007 3006 3005 3005 3005 3006 3007 3008 3009 3010 3011 3011 3012 3013 3014 3014 3015 3015 3016 3016 3016 3017 3018 3018 3019
3117 3117 3117 3117 3117 3116 3116 3116 3117 3117 3117 3117 3116 3116 3116 3115 3115 3115 3114 3113 3112 3110 3108 3107 3105 3103 3101 3099 3097 3094 3092 3090 3087 3085 3082 3079 3076 3072 3068 3065 3061 3057 3053 3048 3044 3040 3035 3031 3028 3025 3023 3020 3017 3014 3011 3008 3005 3004 3003 3002 3002 3001 3001 3000 3000 3001 3001 3003 3004 3005 3006 3007 3008 3009 3010 3010 3011 3012 3012 3012 3013 3014 3014 3015 3016
3116 3116 3116 3115 3115 3115 3115 3116 3116 3117 3116 3116 3116 3116 3116 3115 3115 3115 3114 3113 3111 3110 3108 3106 3104 3102 3100 3098 3096 3094 3092 3089 3087 3084 3081 3078 3074 3071 3067 3063 3059 3056 3052 3047 3043 3039 3035 3031 3027 3023 3020 3017 3014 3010 3008 3005 3002 3001 2999 2998 2997 2997 2996 2995 2995 2996 2997 2998 2999 3000 3001 3002 3003 3004 3005 3006 3007 3007 3008 3009 3009 3010 3010 3011 3012
3114 3114 3114 3114 3114 3115 3115 3116 3116 3116 3116 3116 3116 3116 3116 3115 3115 3114 3113 3112 3110 3109 3107 3106 3104 3102 3100 3097 3095 3094 3092 3089 3086 3083 3080 3076 3073 3069 3065 3062 3058 3054 3051 3047 3043 3038 3034 3031 3027 3022 3018 3015 3011 3008 3004 3002 2999 2997 2996 2994 2993 2993 2991 2991 2991 2992 2993 2994 2995 2996 2997 2998 2999 3000 3001 3002 3003 3003 3004 3004 3006 3006 3006 3007 3008
3112 3113 3113 3113 3114 3114 3115 3116 3116 3116 3116 3116 3116 3116 3116 3115 3114 3113 3112 3111 3110 3108 3107 3105 3103 3101 3100 3098 3096 3094 3091 3088 3085 3082 3078 3075 3071 3068 3064 3060 3057 3053 3049 3045 3042 3038 3034 3030 3026 3022 3017 3013 3009 3005 3002 2999 2997 2995 2993 2991 2990 2989 2988 2987 2987 2988 2988 2990 2991 2992 2993 2994 2995 2996 2997 2997 2998 2999 3000 3000 3001 3001 3002 3003 3004
3111 3112 3112 3113 3114 3114 3115 3115 3116 3116 3116 3116 3116 3115 3115 3114 3114 3113 3112 3110 3109 3108 3106 3105 3103 3101 3100 3098 3096 3093 3090 3087 3084 3081 3078 3074 3071 3067 3063 3059 3055 3051 3048 3044 3040 3036 3032 3028 3024 3020 3016 3012 3008 3004 3000 2998 2995 2993 2990 2988 2987 2986 2985 2984 2984 2984 2985 2986 2987 2988 2989 2990 2991 2992 2993 2993 2994 2995 2996 2996 2997 2997 2998 2999 3000
3110 3111 3112 3113 3114 3114 3115 3115 3115 3116 3116 3115 3115 3115 3114 3114 3113 3112 3111 3110 3109 3107 3106 3105 3103 3102 3100 3098 3096 3093 3090 3087 3084 3081 3077 3074 3070 3066 3062 3058 3055 3051 3047 3043 3039 3035 3031 3027 3023 3019 3015 3012 3008 3004 3000 2997 2995 2992 2989 2987 2986 2985 2983 2981 2981 2981 2982 2982 2983 2984 2985 2986 2987 2988 2989 2990 2991 2992 2992 2993 2993 2993 2994 2995 2996
3110 3111 3112 3113 3113 3114 3114 3115 3115 3115 3115 3115 3115 3114 3114 3113 3112 3111 3111 3110 3109 3107 3106 3105 3104 3102 3100 3098 3095 3093 3090 3087 3084 3081 3077 3074 3070 3066 3063 3059 3055 3051 3047 3043 3039 3035 3031 3028 3024 3020 3016 3012 3008 3005 3001 2998 2995 2992 2989 2987 2985 2984 2982 2981 2980 2979 2979 2979 2979 2980 2981 2983 2984 2984 2985 2986 2987 2988 2989 2989 2990 2990 2990 2991 2992
3110 3111 3112 3113 3113 3114 3114 3114 3115 3115 3115 3114 3114 3114 3113 3113 3112 3111 3111 3110 3109 3108 3107 3106 3104 3102 3100 3098 3095 3093 3090 3087 3084 3081 3078 3074 3071 3067 3064 3060 3056 3052 3048 3044 3040 3036 3033 3029 3026 3022 3018 3014 3010 3006 3003 3000 2996 2993 2990 2987 2985 2983 2982 2980 2979 2978 2977 2977 2976 2976 2978 2980 2981 2982 2983 2983 2984 2985 2986 2986 2987 2987 2988 2988 2989
3110 3111 3112 3112 3113 3113 3114 3114 3114 3114 3114 3114 3114 3114 3113 3113 3112 3112 3111 3110 3110 3109 3107 3106 3104 3102 3100 3098 3095 3093 3090 3088 3085 3082 3079 3075 3072 3068 3065 3061 3058 3054 3050 3046 3043 3039 3036 3032 3028 3024 3020 3016 3012 3008 3004 3000 2997 2994 2991 2988 2986 2984 2982 2980 2979 2977 2977 2977 2977 2975 2975 2976 2979 2980 2981 2981 2982 2982 2983 2984 2984 2985 2985 2985 2985
3110 3111 3111 3112 3113 3113 3114 3114 3114 3114 3114 3114 3114 3114 3113 3113 3112 3112 3112 3111 3110 3109 3108 3106 3104 3102 3100 3098 3096 3094 3091 3089 3086 3083 3080 3076 3073 3070 3067 3063 3060 3057 3053 3050 3046 3043 3039 3035 3031 3027 3022 3018 3014 3009 3006 3002 2999 2996 2993 2990 2986 2984 2982 2981 2979 2978 2977 2978 2978 2976 2974 2974 2976 2978 2979 2979 2980 2981 2981 2982 2982 2983 2983 2983 2983
3109 3111 3112 3112 3113 3113 3114 3114 3114 3114 3114 3114 3114 3114 3113 3113 3113 3112 3112 3111 3110 3109 3108 3106 3104 3102 3100 3098 3096 3094 3092 3090 3087 3084 3080 3077 3074 3071 3068 3065 3062 3059 3055 3052 3049 3046 3042 3038 3035 3030 3026 3022 3017 3013 3009 3005 3001 2997 2994 2991 2988 2985 2983 2981 2981 2980 2979 2978 2978 2978 2976 2975 2975 2977 2978 2979 2979 2980 2980 2981 2981 2981 2981 2981 2981
3109 3111 3112 3112 3113 3113 3114 3114 3114 3114 3115 3115 3114 3114 3114 3113 3113 3113 3112 3112 3111 3109 3108 3106 3104 3102 3100 3098 3096 3094 3092 3090 3087 3084 3081 3078 3075 3072 3069 3066 3063 3059 3056 3053 3051 3048 3046 3043 3039 3034 3030 3025 3020 3016 3012 3007 3003 2999 2996 2993 2991 2988 2986 2984 2983 2982 2980 2980 2979 2979 2978 2977 2977 2977 2978 2978 2979 2979 2980 2980 2980 2980 2980 2980 2980
3109 3111 3112 3112 3113 3113 3114 3114 3115 3115 3115 3115 3115 3114 3114 3114 3114 3113 3112 3112 3110 3109 3107 3105 3103 3102 3100 3098 3096 3094 3092 3089 3086 3083 3081 3079 3076 3073 3070 3066 3063 3060 3057 3055 3053 3051 3049 3045 3041 3036 3032 3027 3023 3018 3015 3011 3007 3003 2999 2996 2994 2991 2989 2988 2986 2984 2983 2982 2982 2981 2979 2979 2978 2978 2978 2978 2979 2979 2979 2979 2979 2979 2979 2980 2980
3110 3111 3112 3112 3113 3114 3114 3115 3115 3115 3115 3115 3115 3115 3115 3114 3114 3113 3112 3111 3110 3108 3106 3105 3103 3101 3100 3098 3096 3094 3091 3089 3087 3085 3082 3079 3077 3074 3071 3068 3065 3063 3060 3057 3055 3053 3050 3046 3042 3037 3033 3029 3025 3021 3018 3014 3010 3007 3003 3000 2997 2995 2993 2991 2989 2987 2986 2985 2984 2983 2982 2981 2980 2980 2980 2979 2979 2979 2979 2979 2979 2979 2979 2979 2979
3110 3111 3112 3112 3113 3114 3114 3114 3115 3115 3115 3115 3115 3115 3115 3115 3114 3113 3112 3111 3109 3108 3106 3105 3103 3101 3099 3098 3096 3094 3092 3090 3088 3086 3083 3081 3078 3075 3072 3070 3067 3065 3062 3060 3057 3054 3050 3046 3043 3039 3035 3032 3028 3025 3021 3018 3014 3011 3007 3004 3002 2999 2997 2995 2993 2992 2990 2988 2987 2986 2985 2984 2983 2982 2981 2980 2980 2979 2979 2979 2979 2979 2979 2979 2979
3109 3111 3111 3112 3113 3114 3114 3114 3115 3115 3115 3116 3116 3115 3115 3114 3114 3113 3111 3110 3109 3107 3106 3105 3103 3102 3100 3098 3096 3094 3093 3090 3088 3086 3084 3082 3079 3077 3074 3071 3069 3067 3064 3062 3059 3055 3051 3048 3045 3041 3038 3035 3031 3028 3025 3022 3018 3015 3012 3009 3006 3004 3001 2999 2998 2997 2995 2992 2991 2989 2988 2987 2986 2984 2983 2982 2981 2980 2980 2979 2979 2979 2979 2979 2979
3109 3110 3111 3112 3113 3114 3114 3115 3115 3115 3116 3116 3115 3115 3115 3114 3113 3112 3111 3110 3108 3107 3106 3105 3104 3102 3100 3099 3097 3095 3093 3091 3089 3087 3084 3082 3080 3078 3075 3073 3071 3069 3066 3063 3060 3056 3053 3050 3047 3044 3041 3037 3034 3032 3029 3025 3022 3020 3016 3013 3011 3008 3006 3005 3003 3001 2998 2996 2995 2993 2991 2990 2989 2987 2986 2985 2983 2982 2981 2981 2981 2981 2980 2980 2980
3109 3110 3111 3112 3113 3114 3114 3115 3115 3115 3115 3115 3115 3114 3114 3113 3112 3111 3110 3109 3108 3107 3106 3105 3104 3102 3101 3099 3097 3095 3094 3092 3090 3088 3085 3083 3081 3078 3076 3074 3073 3071 3068 3065 3061 3058 3055 3052 3049 3046 3044 3041 3038 3035 3032 3029 3026 3024 3021 3018 3016 3014 3012 3010 3008 3005 3003 3001 3000 2998 2996 2995 2993 2991 2989 2988 2987 2986 2985 2984 2984 2983 2982 2982 2981
3109 3110 3111 3112 3113 3114 3114 3114 3115 3115 3115 3115 3114 3114 3113 3112 3111 3111 3110 3109 3108 3107 3106 3105 3104 3102 3101 3099 3098 3096 3094 3092 3091 3088 3086 3084 3082 3079 3077 3076 3074 3072 3069 3066 3063 3060 3057 3054 3051 3049 3046 3044 3041 3039 3036 3033 3030 3027 3025 3022 3020 3018 3016 3014 3012 3010 3008 3006 3004 3002 3001 2999 2997 2995 2994 2993 2992 2991 2989 2988 2988 2987 2986 2985 2985
3109 3110 3111 3112 3113 3113 3114 3114 3114 3114 3114 3114 3113 3113 3112 3112 3111 3110 3109 3109 3108 3107 3106 3105 3104 3103 3101 3100 3098 3096 3095 3093 3091 3089 3087 3085 3083 3081 3079 3078 3075 3072 3069 3067 3064 3062 3059 3056 3054 3051 3049 3046 3044 3041 3039 3036 3034 3031 3029 3026 3024 3022 3020 3017 3015 3014 3012 3010 3008 3007 3005 3003 3001 3000 2999 2998 2997 2995 2994 2993 2992 2992 2991 2990 2990
3109 3110 3111 3112 3112 3113 3113 3113 3113 3113 3113 3113 3112 3112 3112 3111 3111 3110 3109 3108 3108 3107 3106 3105 3104 3102 3101 3099 3098 3096 3095 3093 3091 3089 3088 3086 3084 3083 3081 3078 3076 3073 3071 3068 3066 3064 3061 3059 3056 3054 3051 3049 3047 3044 3042 3040 3037 3035 3032 3030 3028 3025 3023 3021 3019 3018 3016 3014 3012 3010 3009 3007 3005 3004 3003 3002 3000 2999 2998 2997 2996 2996 2996 2995 2994
3109 3110 3110 3111 3112 3112 3112 3113 3113 3113 3112 3112 3112 3112 3111 3111 3110 3110 3109 3108 3107 3106 3105 3104 3103 3102 3101 3099 3098 3096 3095 3093 3091 3090 3088 3087 3085 3083 3081 3079 3077 3074 3072 3070 3067 3065 3063 3061 3058 3056 3054 3051 3049 3047 3045 3042 3040 3038 3036 3033 3031 3029 3027 3025 3023 3022 3020 3017 3015 3014 3012 3010 3009 3007 3006 3005 3004 3003 3003 3002 3001 3000 3000 2999 2999
3108 3109 3110 3110 3111 3111 3111 3112 3112 3112 3112 3111 3111 3111 3111 3110 3110 3109 3108 3108 3107 3106 3105 3104 3103 3102 3101 3099 3098 3097 3095 3093 3092 3090 3089 3087 3086 3084 3082 3080 3078 3076 3073 3071 3069 3067 3065 3063 3060 3058 3056 3054 3052 3049 3047 3045 3043 3041 3039 3037 3035 3033 3031 3029 3027 3025 3023 3021 3019 3017 3016 3014 3012 3011 3010 3009 3008 3007 3006 3006 3005 3005 3004 3003 3002
3107 3108 3109 3110 3110 3110 3110 3111 3111 3111 3111 3111 3110 3110 3110 3109 3109 3108 3108 3107 3106 3106 3105 3104 3103 3102 3100 3099 3098 3097 3095 3094 3092 3091 3089 3088 3086 3084 3082 3080 3079 3077 3075 3073 3071 3069 3067 3064 3062 3060 3058 3056 3054 3052 3050 3047 3045 3044 3042 3039 3037 3035 3033 3031 3029 3027 3025 3024 3022 3021 3019 3017 3016 3015 3014 3012 3011 3010 3010 3009 3008 3008 3007 3007 3006
3106 3107 3108 3109 3109 3109 3109 3110 3110 3110 3110 3110 3109 3109 3109 3108 3108 3108 3107 3106 3106 3105 3104 3103 3102 3101 3100 3099 3098 3097 3095 3094 3092 3091 3089 3088 3086 3085 3083 3081 3080 3078 3076 3074 3072 3070 3068 3066 3064 3062 3060 3058 3056 3054 3052 3050 3048 3046 3044 3042 3040 3038 3036 3034 3032 3030 3028 3027 3025 3024 3022 3021 3019 3018 3017 3016 3015 3014 3013 3012 3011 3010 3010 3009 3009
3105 3106 3107 3107 3108 3108 3108 3109 3109 3109 3109 3108 3108 3108 3108 3107 3107 3107 3106 3106 3105 3104 3104 3103 3102 3101 3100 3098 3097 3096 3095 3094 3092 3091 3090 3088 3087 3085 3084 3082 3080 3079 3077 3075 3073 3071 3069 3068 3066 3064 3062 3060 3058 3056 3054 3052 3050 3048 3046 3044 3042 3040 3038 3036 3035 3033 3031 3030 3028 3026 3025 3024 3022 3021 3020 3019 3018 3017 3016 3015 3014 3013 3013 3012 3011
3104 3105 3106 3106 3106 3107 3107 3107 3107 3107 3107 3107 3107 3107 3106 3106 3106 3105 3105 3104 3104 3103 3103 3102 3101 3100 3099 3098 3097 3095 3094 3093 3092 3091 3089 3088 3087 3085 3084 3082 3081 3079 3078 3076 3074 3073 3071 3069 3067 3065 3063 3061 3059 3057 3055 3053 3051 3049 3048 3046 3044 3042 3040 3039 3037 3035 3034 3032 3030 3029 3028 3026 3025 3024 3023 3022 3021 3019 3018 3018 3017 3016 3015 3015 3014
3103 3104 3104 3105 3105 3105 3105 3106 3106 3106 3106 3106 3105 3105 3105 3105 3104 3104 3104 3103 3102 3102 3101 3101 3100 3099 3098 3097 3096 3095 3093 3092 3091 3090 3089 3088 3087 3085 3084 3082 3081 3079 3078 3076 3075 3073 3072 3070 3068 3066 3064 3062 3060 3059 3057 3055 3053 3051 3049 3047 3046 3044 3042 3041 3039 3037 3036 3034 3033 3031 3030 3028 3027 3026 3025 3024 3023 3022 3021 3020 3019 3018 3018 3017 3016
3102 3102 3103 3103 3104 3104 3104 3104 3104 3104 3104 3104 3104 3104 3103 3103 3103 3102 3102 3101 3101 3100 3100 3099 3098 3097 3096 3095 3094 3093 3092 3091 3090 3089 3088 3087 3086 3085 3083 3082 3081 3079 3078 3076 3075 3073 3072 3070 3068 3067 3065 3063 3061 3060 3058 3056 3054 3052 3051 3049 3047 3046 3044 3042 3041 3039 3037 3036 3034 3033 3032 3030 3029 3028 3026 3025 3024 3023 3023 3022 3021 3020 3019 3019 3018
3100 3101 3101 3102 3102 3102 3102 3103 3103 3103 3103 3102 3102 3102 3102 3101 3101 3100 3100 3099 3099 3098 3098 3097 3096 3096 3095 3094 3093 3092 3091 3090 3089 3088 3087 3086 3085 3084 3083 3081 3080 3079 3077 3076 3074 3073 3072 3070 3068 3067 3065 3064 3062 3060 3058 3057 3055 3053 3052 3050 3048 3047 3045 3043 3042 3040 3039 3037 3036 3034 3033 3032 3030 3029 3028 3027 3026 3025 3024 3023 3022 3022 3021 3020 3019
3099 3099 3100 3100 3101 3101 3101 3101 3101 3101 3101 3100 3100 3100 3100 3099 3099 3098 3098 3097 3097 3096 3096 3095 3094 3094 3093 3092 3091 3090 3089 3088 3087 3086 3085 3084 3083 3083 3082 3080 3079 3078 3077 3075 3074 3073 3071 3070 3068 3067 3065 3064 3062 3060 3059 3057 3055 3054 3052 3050 3049 3047 3045 3044 3043 3041 3040 3038 3037 3035 3034 3033 3032 3030 3029 3028 3027 3026 3025 3024 3023 3022 3022 3021 3020
3097 3097 3098 3098 3099 3099 3099 3099 3099 3099 3098 3098 3098 3098 3097 3097 3097 3096 3096 3095 3095 3094 3093 3093 3092 3091 3091 3090 3089 3088 3087 3086 3085 3084 3083 3082 3082 3081 3080 3079 3078 3077 3075 3074 3073 3072 3070 3069 3068 3066 3065 3063 3062 3060 3058 3057 3055 3054 3052 3050 3049 3047 3046 3044 3043 3041 3040 3039 3037 3036 3035 3033 3032 3031 3030 3029 3027 3026 3025 3024 3023 3023 3022 3021 3021
3095 3095 3096 3096 3096 3096 3096 3096 3096 3096 3096 3096 3095 3095 3095 3094 3094 3094 3093 3093 3092 3091 3091 3090 3089 3089 3088 3087 3087 3086 3085 3084 3083 3082 3081 3080 3079 3079 3078 3077 3076 3075 3074 3073 3072 3070 3069 3068 3066 3065 3064 3062 3061 3059 3058 3056 3055 3053 3052 3050 3049 3047 3046 3044 3042 3041 3040 3038 3037 3036 3035 3034 3032 3031 3030 3029 3028 3026 3026 3025 3024 3023 3022 3021 3021
3092 3093 3093 3094 3094 3094 3094 3094 3094 3093 3093 3093 3093 3093 3092 3092 3091 3091 3090 3090 3089 3089 3088 3087 3087 3086 3085 3084 3084 3083 3082 3082 3081 3080 3079 3078 3077 3076 3075 3075 3074 3073 3072 3071 3070 3069 3067 3066 3065 3064 3062 3061 3060 3058 3057 3055 3054 3052 3051 3050 3048 3047 3045 3044 3042 3041 3039 3038 3036 3035 3034 3033 3032 3031 3030 3028 3027 3026 3025 3024 3023 3022 3022 3021 3020
3090 3090 3091 3091 3091 3091 3091 3091 3091 3091 3090 3090 3090 3090 3089 3089 3089 3088 3087 3087 3086 3086 3085 3084 3083 3083 3082 3082 3081 3080 3079 3078 3078 3077 3076 3075 3075 3074 3073 3072 3071 3070 3069 3068 3067 3066 3065 3064 3063 3062 3061 3059 3058 3057 3055 3054 3052 3051 3050 3048 3047 3045 3044 3042 3041 3040 3038 3037 3035 3034 3033 3032 3031 3030 3029 3028 3027 3026 3024 3023 3022 3022 3021 3020 3019